User: anonymous
Location: Darlington Observatory
(36.4817°N, 105.8156°W)
Time: 01:24:06
(UTC-06:00)
Language:

MOS 1 - Orbit

View from above orbital plane
View from above orbital plane
View from above satellite
View from above satellite

Ground track
Ground track

The orbit data is extracted from the following two-line orbital elements,

1 17527U 87018A   14211.04691995  .00000209  00000-0  16621-3 0  5860
2 17527 099.2163 192.7603 0008041 311.5739 089.7072 14.02278717401843
Epoch (UTC): 30 July 2014 01:07:33
Eccentricity: 0.0008041
inclination: 99.2163°
perigee height: 880 km
apogee height: 892 km
right ascension of ascending node: 192.7603°
argument of perigee: 311.5739°
revolutions per day: 14.02278717
mean anomaly at epoch: 89.7072°
orbit number at epoch: 40184

The dashed part of the orbit path shows where the satellite is in the earth's shadow,  

DLR